Location: Newark
(42.9858°N, 0.6717°E)
Time: 00:22:01
(UTC+00:00)

Vanguard 2 - All Passes

Search period start: 12 November 2019 00:00
Search period end: 22 November 2019 00:00
Orbit: 554 x 2937 km, 32.9° (Epoch: 11 November)

Date Brightness Start Highest point End Pass type
(mag) Time Alt. Az. Time Alt. Az. Time Alt. Az.
12 Nov - 10:42:51 10° SSW 10:46:34 18° S 10:49:37 10° SE daylight
12 Nov - 12:50:56 10° SW 12:54:14 21° S 12:57:17 10° SE daylight
12 Nov - 14:59:58 10° SW 15:01:44 12° SSW 15:03:35 10° S daylight
13 Nov - 08:53:20 10° S 08:56:15 13° SSE 08:58:45 10° SE daylight
13 Nov - 11:00:09 10° SW 11:04:22 21° S 11:07:43 10° ESE daylight
13 Nov - 13:08:48 10° WSW 13:11:58 20° S 13:14:54 10° SE daylight
14 Nov - 09:09:31 10° SSW 09:14:07 17° SSE 09:17:43 10° SE daylight
14 Nov - 11:17:44 10° SW 11:22:09 24° S 11:25:39 10° SE daylight
14 Nov - 13:26:52 10° SW 13:29:40 17° SSW 13:32:20 10° SSE daylight
15 Nov - 07:21:17 10° S 07:23:20 11° SSE 07:25:11 10° SE daylight
15 Nov - 09:26:26 10° SW 09:31:59 22° S 09:36:04 10° ESE daylight
15 Nov - 11:35:27 10° WSW 11:39:56 25° S 11:43:27 10° SE daylight
15 Nov - 13:45:12 10° SW 13:47:21 14° SSW 13:49:25 10° SSE daylight
16 Nov - 07:35:59 10° SSW 07:41:14 16° SSE 07:45:22 10° SE daylight
16 Nov - 09:43:44 10° SW 09:49:49 26° S 09:54:08 10° ESE daylight
16 Nov - 11:53:19 10° WSW 11:57:39 24° S 12:01:07 10° SE daylight
17 Nov - 07:52:16 10° SSW 07:59:08 21° SSE 08:04:08 10° ESE daylight
17 Nov - 10:01:17 10° SW 10:07:39 29° S 10:12:03 10° ESE daylight
17 Nov - 12:11:18 10° WSW 12:15:21 22° SSW 12:18:39 10° SE daylight
18 Nov - 06:03:05 10° S 06:07:50 13° SSE 06:11:51 10° SE visible
18 Nov - 08:09:08 10° SW 08:17:02 26° SSE 08:22:26 10° ESE daylight
18 Nov - 10:19:00 10° WSW 10:25:27 31° S 10:29:53 10° ESE daylight
18 Nov - 12:29:27 10° WSW 12:33:00 19° SSW 12:36:00 10° SSE daylight
19 Nov - 06:18:12 10° SSW 06:25:45 19° SSE 06:31:30 10° ESE visible
19 Nov - 08:26:24 10° SW 08:34:54 31° S 08:40:32 10° ESE daylight
19 Nov - 10:36:51 10° WSW 10:43:13 31° S 10:47:36 10° SE daylight
19 Nov - 12:47:54 10° WSW 12:50:36 14° SSW 12:52:58 10° S daylight
20 Nov - 06:34:25 10° SSW 06:43:39 24° SSE 06:50:14 10° ESE daylight
20 Nov - 08:43:55 10° SW 08:52:46 35° S 08:58:28 10° ESE daylight
20 Nov - 10:54:49 10° WSW 11:00:56 30° SSW 11:05:13 10° SE daylight
20 Nov - 13:07:30 10° SW 13:08:07 10° SSW 13:08:44 10° SSW daylight
21 Nov - 04:45:14 10° S 04:51:50 15° SSE 04:57:23 10° ESE visible
21 Nov - 06:51:12 10° SW 07:01:34 30° SSE 07:08:34 10° ESE daylight
21 Nov - 09:01:38 10° WSW 09:10:36 38° S 09:16:18 10° ESE daylight
21 Nov - 11:12:53 10° WSW 11:18:36 26° SSW 11:22:43 10° SE daylight
